User: anonymous   Login
Location: Unspecified
(0.0000°N, 0.0000°E)
Time: 13:31:21
(UTC+02:00)
Language:

CZ-4B DEB - Orbit

View from above orbital plane
View from above orbital plane
View from above satellite
View from above satellite

Ground track
Ground track

The orbit data is extracted from the following two-line orbital elements,

1 33411U 08053D   15209.52290066  .00012477  00000-0  45604-3 0  9998
2 33411 097.4849 230.7926 0005347 286.1476 073.9174 15.28217632369968
Epoch (UTC): 28 July 2015 12:32:58
Eccentricity: 0.0005347
inclination: 97.4849°
perigee height: 477 km
apogee height: 485 km
right ascension of ascending node: 230.7926°
argument of perigee: 286.1476°
revolutions per day: 15.28217632
mean anomaly at epoch: 73.9174°
orbit number at epoch: 36996

The dashed part of the orbit path shows where the satellite is in the earth's shadow,  

DLR